Year,Month,Day,Hour,Minute,Value (Times are PST for temperature in C)
2016,01,24,00,00,3.50
2016,01,24,00,01,3.50
2016,01,24,00,02,3.50
2016,01,24,00,03,3.50
2016,01,24,00,04,3.40
2016,01,24,00,05,3.40
2016,01,24,00,06,3.40
2016,01,24,00,07,3.40
2016,01,24,00,08,3.30
2016,01,24,00,09,3.30
2016,01,24,00,10,3.30
2016,01,24,00,11,3.30
2016,01,24,00,12,3.30
2016,01,24,00,13,3.30
2016,01,24,00,14,3.30
2016,01,24,00,15,3.30
2016,01,24,00,16,3.30
2016,01,24,00,17,3.30
2016,01,24,00,18,3.30
2016,01,24,00,19,3.30
2016,01,24,00,20,3.20
2016,01,24,00,21,3.20
2016,01,24,00,22,3.20
2016,01,24,00,23,3.20
2016,01,24,00,24,3.20
2016,01,24,00,25,3.30
2016,01,24,00,26,3.30
2016,01,24,00,27,3.30
2016,01,24,00,28,3.30
2016,01,24,00,29,3.30
2016,01,24,00,30,3.30
2016,01,24,00,31,3.30
2016,01,24,00,32,3.30
2016,01,24,00,33,3.30
2016,01,24,00,34,3.30
2016,01,24,00,35,3.30
2016,01,24,00,36,3.30
2016,01,24,00,37,3.30
2016,01,24,00,38,3.30
2016,01,24,00,39,3.30
2016,01,24,00,40,3.30
2016,01,24,00,41,3.30
2016,01,24,00,42,3.30
2016,01,24,00,43,3.20
2016,01,24,00,44,3.20
2016,01,24,00,45,3.20
2016,01,24,00,46,3.20
2016,01,24,00,47,3.20
2016,01,24,00,48,3.20
2016,01,24,00,49,3.20
2016,01,24,00,50,3.20
2016,01,24,00,51,3.20
2016,01,24,00,52,3.20
2016,01,24,00,53,3.20
2016,01,24,00,54,3.20
2016,01,24,00,55,3.20
2016,01,24,00,56,3.20
2016,01,24,00,57,3.20
2016,01,24,00,58,3.20
2016,01,24,00,59,3.20
2016,01,24,01,00,3.20
2016,01,24,01,01,3.20
2016,01,24,01,02,3.20
2016,01,24,01,03,3.20
2016,01,24,01,04,3.20
2016,01,24,01,05,3.20
2016,01,24,01,06,3.20
2016,01,24,01,07,3.30
2016,01,24,01,08,3.30
2016,01,24,01,09,3.30
2016,01,24,01,10,3.30
2016,01,24,01,11,3.30
2016,01,24,01,12,3.30
2016,01,24,01,13,3.30
2016,01,24,01,14,3.30
2016,01,24,01,15,3.30
2016,01,24,01,16,3.20
2016,01,24,01,17,3.20
2016,01,24,01,18,3.20
2016,01,24,01,19,3.20
2016,01,24,01,20,3.10
2016,01,24,01,21,3.10
2016,01,24,01,22,3.10
2016,01,24,01,23,3.10
2016,01,24,01,24,3.10
2016,01,24,01,25,3.20
2016,01,24,01,26,3.20
2016,01,24,01,27,3.20
2016,01,24,01,28,3.20
2016,01,24,01,29,3.20
2016,01,24,01,30,3.10
2016,01,24,01,31,3.20
2016,01,24,01,32,3.20
2016,01,24,01,33,3.10
2016,01,24,01,34,3.10
2016,01,24,01,35,3.10
2016,01,24,01,36,3.10
2016,01,24,01,37,3.10
2016,01,24,01,38,3.00
2016,01,24,01,39,2.90
2016,01,24,01,40,2.90
2016,01,24,01,41,2.90
2016,01,24,01,42,3.00
2016,01,24,01,43,3.00
2016,01,24,01,44,3.00
2016,01,24,01,45,3.00
2016,01,24,01,46,3.10
2016,01,24,01,47,3.00
2016,01,24,01,48,3.00
2016,01,24,01,49,3.00
2016,01,24,01,50,3.00
2016,01,24,01,51,3.00
2016,01,24,01,52,3.00
2016,01,24,01,53,2.90
2016,01,24,01,54,2.90
2016,01,24,01,55,2.90
2016,01,24,01,56,2.80
2016,01,24,01,57,2.80
2016,01,24,01,58,2.90
2016,01,24,01,59,2.90
2016,01,24,02,00,2.80
2016,01,24,02,01,2.90
2016,01,24,02,02,2.90
2016,01,24,02,03,2.90
2016,01,24,02,04,2.90
2016,01,24,02,05,2.90
2016,01,24,02,06,2.90
2016,01,24,02,07,2.90
2016,01,24,02,08,2.90
2016,01,24,02,09,2.90
2016,01,24,02,10,2.90
2016,01,24,02,11,2.90
2016,01,24,02,12,2.90
2016,01,24,02,13,2.90
2016,01,24,02,14,2.80
2016,01,24,02,15,2.80
2016,01,24,02,16,2.80
2016,01,24,02,17,2.80
2016,01,24,02,18,2.80
2016,01,24,02,19,2.80
2016,01,24,02,20,2.70
2016,01,24,02,21,2.70
2016,01,24,02,22,2.70
2016,01,24,02,23,2.80
2016,01,24,02,24,2.80
2016,01,24,02,25,2.80
2016,01,24,02,26,2.70
2016,01,24,02,27,2.70
2016,01,24,02,28,2.70
2016,01,24,02,29,2.70
2016,01,24,02,30,2.60
2016,01,24,02,31,2.60
2016,01,24,02,32,2.60
2016,01,24,02,33,2.60
2016,01,24,02,34,2.60
2016,01,24,02,35,2.60
2016,01,24,02,36,2.50
2016,01,24,02,37,2.50
2016,01,24,02,38,2.50
2016,01,24,02,39,2.40
2016,01,24,02,40,2.40
2016,01,24,02,41,2.40
2016,01,24,02,42,2.40
2016,01,24,02,43,2.50
2016,01,24,02,44,2.50
2016,01,24,02,45,2.50
2016,01,24,02,46,2.50
2016,01,24,02,47,2.40
2016,01,24,02,48,2.50
2016,01,24,02,49,2.50
2016,01,24,02,50,2.50
2016,01,24,02,51,2.60
2016,01,24,02,52,2.60
2016,01,24,02,53,2.60
2016,01,24,02,54,2.60
2016,01,24,02,55,2.50
2016,01,24,02,56,2.50
2016,01,24,02,57,2.50
2016,01,24,02,58,2.50
2016,01,24,02,59,2.50
2016,01,24,03,00,2.60
2016,01,24,03,01,2.70
2016,01,24,03,02,2.80
2016,01,24,03,03,2.80
2016,01,24,03,04,2.80
2016,01,24,03,05,2.80
2016,01,24,03,06,2.80
2016,01,24,03,07,2.80
2016,01,24,03,08,2.70
2016,01,24,03,09,2.70
2016,01,24,03,10,2.60
2016,01,24,03,11,2.50
2016,01,24,03,12,2.50
2016,01,24,03,13,2.50
2016,01,24,03,14,2.50
2016,01,24,03,15,2.50
2016,01,24,03,16,2.50
2016,01,24,03,17,2.40
2016,01,24,03,18,2.40
2016,01,24,03,19,2.40
2016,01,24,03,20,2.40
2016,01,24,03,21,2.30
2016,01,24,03,22,2.30
2016,01,24,03,23,2.20
2016,01,24,03,24,2.20
2016,01,24,03,25,2.20
2016,01,24,03,26,2.20
2016,01,24,03,27,2.10
2016,01,24,03,28,2.10
2016,01,24,03,29,2.10
2016,01,24,03,30,2.10
2016,01,24,03,31,2.10
2016,01,24,03,32,2.10
2016,01,24,03,33,2.10
2016,01,24,03,34,2.10
2016,01,24,03,35,2.10
2016,01,24,03,36,2.10
2016,01,24,03,37,2.10
2016,01,24,03,38,2.10
2016,01,24,03,39,2.10
2016,01,24,03,40,2.10
2016,01,24,03,41,2.10
2016,01,24,03,42,2.00
2016,01,24,03,43,2.00
2016,01,24,03,44,2.00
2016,01,24,03,45,2.00
2016,01,24,03,46,2.00
2016,01,24,03,47,2.10
2016,01,24,03,48,2.10
2016,01,24,03,49,2.10
2016,01,24,03,50,2.20
2016,01,24,03,51,2.20
2016,01,24,03,52,2.20
2016,01,24,03,53,2.20
2016,01,24,03,54,2.20
2016,01,24,03,55,2.20
2016,01,24,03,56,2.20
2016,01,24,03,57,2.10
2016,01,24,03,58,2.10
2016,01,24,03,59,2.10
2016,01,24,04,00,2.00
2016,01,24,04,01,2.00
2016,01,24,04,02,1.90
2016,01,24,04,03,1.90
2016,01,24,04,04,1.80
2016,01,24,04,05,1.80
2016,01,24,04,06,1.80
2016,01,24,04,07,1.80
2016,01,24,04,08,1.80
2016,01,24,04,09,1.80
2016,01,24,04,10,1.80
2016,01,24,04,11,1.80
2016,01,24,04,12,1.80
2016,01,24,04,13,1.80
2016,01,24,04,14,1.80
2016,01,24,04,15,1.80
2016,01,24,04,16,1.70
2016,01,24,04,17,1.70
2016,01,24,04,18,1.70
2016,01,24,04,19,1.70
2016,01,24,04,20,1.70
2016,01,24,04,21,1.60
2016,01,24,04,22,1.60
2016,01,24,04,23,1.60
2016,01,24,04,24,1.60
2016,01,24,04,25,1.60
2016,01,24,04,26,1.50
2016,01,24,04,27,1.50
2016,01,24,04,28,1.50
2016,01,24,04,29,1.50
2016,01,24,04,30,1.50
2016,01,24,04,31,1.50
2016,01,24,04,32,1.50
2016,01,24,04,33,1.50
2016,01,24,04,34,1.50
2016,01,24,04,35,1.50
2016,01,24,04,36,1.50
2016,01,24,04,37,1.50
2016,01,24,04,38,1.50
2016,01,24,04,39,1.50
2016,01,24,04,40,1.40
2016,01,24,04,41,1.40
2016,01,24,04,42,1.40
2016,01,24,04,43,1.30
2016,01,24,04,44,1.20
2016,01,24,04,45,1.20
2016,01,24,04,46,1.20
2016,01,24,04,47,1.20
2016,01,24,04,48,1.20
2016,01,24,04,49,1.20
2016,01,24,04,50,1.10
2016,01,24,04,51,1.10
2016,01,24,04,52,1.10
2016,01,24,04,53,1.10
2016,01,24,04,54,1.10
2016,01,24,04,55,1.10
2016,01,24,04,56,1.20
2016,01,24,04,57,1.20
2016,01,24,04,58,1.20
2016,01,24,04,59,1.30
2016,01,24,05,00,1.40
2016,01,24,05,01,1.50
2016,01,24,05,02,1.50
2016,01,24,05,03,1.60
2016,01,24,05,04,1.50
2016,01,24,05,05,1.50
2016,01,24,05,06,1.50
2016,01,24,05,07,1.50
2016,01,24,05,08,1.50
2016,01,24,05,09,1.50
2016,01,24,05,10,1.60
2016,01,24,05,11,1.60
2016,01,24,05,12,1.60
2016,01,24,05,13,1.60
2016,01,24,05,14,1.60
2016,01,24,05,15,1.60
2016,01,24,05,16,1.60
2016,01,24,05,17,1.60
2016,01,24,05,18,1.60
2016,01,24,05,19,1.60
2016,01,24,05,20,1.60
2016,01,24,05,21,1.60
2016,01,24,05,22,1.60
2016,01,24,05,23,1.60
2016,01,24,05,24,1.60
2016,01,24,05,25,1.60
2016,01,24,05,26,1.60
2016,01,24,05,27,1.50
2016,01,24,05,28,1.50
2016,01,24,05,29,1.40
2016,01,24,05,30,1.40
2016,01,24,05,31,1.40
2016,01,24,05,32,1.40
2016,01,24,05,33,1.40
2016,01,24,05,34,1.40
2016,01,24,05,35,1.40
2016,01,24,05,36,1.40
2016,01,24,05,37,1.30
2016,01,24,05,38,1.30
2016,01,24,05,39,1.30
2016,01,24,05,40,1.30
2016,01,24,05,41,1.30
2016,01,24,05,42,1.30
2016,01,24,05,43,1.30
2016,01,24,05,44,1.40
2016,01,24,05,45,1.40
2016,01,24,05,46,1.40
2016,01,24,05,47,1.40
2016,01,24,05,48,1.40
2016,01,24,05,49,1.40
2016,01,24,05,50,1.30
2016,01,24,05,51,1.30
2016,01,24,05,52,1.30
2016,01,24,05,53,1.30
2016,01,24,05,54,1.30
2016,01,24,05,55,1.30
2016,01,24,05,56,1.30
2016,01,24,05,57,1.20
2016,01,24,05,58,1.20
2016,01,24,05,59,1.20
2016,01,24,06,00,1.20
2016,01,24,06,01,1.20
2016,01,24,06,02,1.20
2016,01,24,06,03,1.20
2016,01,24,06,04,1.30
2016,01,24,06,05,1.30
2016,01,24,06,06,1.30
2016,01,24,06,07,1.30
2016,01,24,06,08,1.30
2016,01,24,06,09,1.40
2016,01,24,06,10,1.40
2016,01,24,06,11,1.40
2016,01,24,06,12,1.40
2016,01,24,06,13,1.40
2016,01,24,06,14,1.50
2016,01,24,06,15,1.50
2016,01,24,06,16,1.40
2016,01,24,06,17,1.40
2016,01,24,06,18,1.30
2016,01,24,06,19,1.30
2016,01,24,06,20,1.30
2016,01,24,06,21,1.30
2016,01,24,06,22,1.30
2016,01,24,06,23,1.30
2016,01,24,06,24,1.30
2016,01,24,06,25,1.40
2016,01,24,06,26,1.40
2016,01,24,06,27,1.40
2016,01,24,06,28,1.40
2016,01,24,06,29,1.40
2016,01,24,06,30,1.40
2016,01,24,06,31,1.40
2016,01,24,06,32,1.40
2016,01,24,06,33,1.40
2016,01,24,06,34,1.40
2016,01,24,06,35,1.30
2016,01,24,06,36,1.30
2016,01,24,06,37,1.30
2016,01,24,06,38,1.30
2016,01,24,06,39,1.30
2016,01,24,06,40,1.30
2016,01,24,06,41,1.20
2016,01,24,06,42,1.20
2016,01,24,06,43,1.20
2016,01,24,06,44,1.20
2016,01,24,06,45,1.30
2016,01,24,06,46,1.30
2016,01,24,06,47,1.30
2016,01,24,06,48,1.40
2016,01,24,06,49,1.40
2016,01,24,06,50,1.40
2016,01,24,06,51,1.30
2016,01,24,06,52,1.30
2016,01,24,06,53,1.30
2016,01,24,06,54,1.30
2016,01,24,06,55,1.30
2016,01,24,06,56,1.30
2016,01,24,06,57,1.30
2016,01,24,06,58,1.30
2016,01,24,06,59,1.40
2016,01,24,07,00,1.40
2016,01,24,07,01,1.40
2016,01,24,07,02,1.30
2016,01,24,07,03,1.30
2016,01,24,07,04,1.30
2016,01,24,07,05,1.30
2016,01,24,07,06,1.30
2016,01,24,07,07,1.30
2016,01,24,07,08,1.30
2016,01,24,07,09,1.30
2016,01,24,07,10,1.20
2016,01,24,07,11,1.20
2016,01,24,07,12,1.20
2016,01,24,07,13,1.20
2016,01,24,07,14,1.20
2016,01,24,07,15,1.20
2016,01,24,07,16,1.20
2016,01,24,07,17,1.20
2016,01,24,07,18,1.20
2016,01,24,07,19,1.20
2016,01,24,07,20,1.10
2016,01,24,07,21,1.20
2016,01,24,07,22,1.20
2016,01,24,07,23,1.20
2016,01,24,07,24,1.20
2016,01,24,07,25,1.20
2016,01,24,07,26,1.10
2016,01,24,07,27,1.10
2016,01,24,07,28,1.00
2016,01,24,07,29,1.00
2016,01,24,07,30,1.00
2016,01,24,07,31,0.90
2016,01,24,07,32,0.90
2016,01,24,07,33,0.90
2016,01,24,07,34,0.80
2016,01,24,07,35,0.80
2016,01,24,07,36,0.80
2016,01,24,07,37,0.80
2016,01,24,07,38,0.80
2016,01,24,07,39,0.80
2016,01,24,07,40,0.80
2016,01,24,07,41,0.80
2016,01,24,07,42,0.80
2016,01,24,07,43,0.80
2016,01,24,07,44,0.80
2016,01,24,07,45,0.80
2016,01,24,07,46,0.80
2016,01,24,07,47,0.80
2016,01,24,07,48,0.80
2016,01,24,07,49,0.80
2016,01,24,07,50,0.80
2016,01,24,07,51,0.80
2016,01,24,07,52,0.80
2016,01,24,07,53,0.80
2016,01,24,07,54,0.80
2016,01,24,07,55,0.80
2016,01,24,07,56,0.80
2016,01,24,07,57,0.80
2016,01,24,07,58,0.70
2016,01,24,07,59,0.70
2016,01,24,08,00,0.70
2016,01,24,08,01,0.70
2016,01,24,08,02,0.70
2016,01,24,08,03,0.60
2016,01,24,08,04,0.60
2016,01,24,08,05,0.60
2016,01,24,08,06,0.60
2016,01,24,08,07,0.60
2016,01,24,08,08,0.60
2016,01,24,08,09,0.60
2016,01,24,08,10,0.60
2016,01,24,08,11,0.60
2016,01,24,08,12,0.60
2016,01,24,08,13,0.60
2016,01,24,08,14,0.60
2016,01,24,08,15,0.60
2016,01,24,08,16,0.60
2016,01,24,08,17,0.60
2016,01,24,08,18,0.60
2016,01,24,08,19,0.60
2016,01,24,08,20,0.50
2016,01,24,08,21,0.50
2016,01,24,08,22,0.40
2016,01,24,08,23,0.40
2016,01,24,08,24,0.40
2016,01,24,08,25,0.40
2016,01,24,08,26,0.40
2016,01,24,08,27,0.40
2016,01,24,08,28,0.40
2016,01,24,08,29,0.40
2016,01,24,08,30,0.40
2016,01,24,08,31,0.40
2016,01,24,08,32,0.40
2016,01,24,08,33,0.40
2016,01,24,08,34,0.40
2016,01,24,08,35,0.40
2016,01,24,08,36,0.40
2016,01,24,08,37,0.50
2016,01,24,08,38,0.50
2016,01,24,08,39,0.50
2016,01,24,08,40,0.50
2016,01,24,08,41,0.50
2016,01,24,08,42,0.60
2016,01,24,08,43,0.60
2016,01,24,08,44,0.60
2016,01,24,08,45,0.70
2016,01,24,08,46,0.70
2016,01,24,08,47,0.70
2016,01,24,08,48,0.70
2016,01,24,08,49,0.70
2016,01,24,08,50,0.70
2016,01,24,08,51,0.80
2016,01,24,08,52,0.80
2016,01,24,08,53,0.80
2016,01,24,08,54,0.80
2016,01,24,08,55,0.80
2016,01,24,08,56,0.90
2016,01,24,08,57,0.90
2016,01,24,08,58,1.00
2016,01,24,08,59,1.00
2016,01,24,09,00,1.10
2016,01,24,09,01,1.10
2016,01,24,09,02,1.10
2016,01,24,09,03,1.20
2016,01,24,09,04,1.20
2016,01,24,09,05,1.20
2016,01,24,09,06,1.20
2016,01,24,09,07,1.20
2016,01,24,09,08,1.20
2016,01,24,09,09,1.20
2016,01,24,09,10,1.20
2016,01,24,09,11,1.20
2016,01,24,09,12,1.20
2016,01,24,09,13,1.20
2016,01,24,09,14,1.20
2016,01,24,09,15,1.20
2016,01,24,09,16,1.20
2016,01,24,09,17,1.20
2016,01,24,09,18,1.20
2016,01,24,09,19,1.20
2016,01,24,09,20,1.20
2016,01,24,09,21,1.30
2016,01,24,09,22,1.30
2016,01,24,09,23,1.30
2016,01,24,09,24,1.30
2016,01,24,09,25,1.30
2016,01,24,09,26,1.30
2016,01,24,09,27,1.30
2016,01,24,09,28,1.40
2016,01,24,09,29,1.50
2016,01,24,09,30,1.50
2016,01,24,09,31,1.60
2016,01,24,09,32,1.60
2016,01,24,09,33,1.70
2016,01,24,09,34,1.70
2016,01,24,09,35,1.70
2016,01,24,09,36,1.80
2016,01,24,09,37,1.80
2016,01,24,09,38,1.90
2016,01,24,09,39,2.00
2016,01,24,09,40,2.00
2016,01,24,09,41,2.10
2016,01,24,09,42,2.10
2016,01,24,09,43,2.10
2016,01,24,09,44,2.10
2016,01,24,09,45,2.10
2016,01,24,09,46,2.20
2016,01,24,09,47,2.20
2016,01,24,09,48,2.20
2016,01,24,09,49,2.30
2016,01,24,09,50,2.30
2016,01,24,09,51,2.40
2016,01,24,09,52,2.60
2016,01,24,09,53,2.70
2016,01,24,09,54,2.70
2016,01,24,09,55,2.80
2016,01,24,09,56,2.80
2016,01,24,09,57,2.90
2016,01,24,09,58,2.90
2016,01,24,09,59,2.90
2016,01,24,10,00,2.90
2016,01,24,10,01,2.90
2016,01,24,10,02,2.80
2016,01,24,10,03,2.80
2016,01,24,10,04,2.80
2016,01,24,10,05,2.80
2016,01,24,10,06,2.80
2016,01,24,10,07,2.70
2016,01,24,10,08,2.70
2016,01,24,10,09,2.70
2016,01,24,10,10,2.70
2016,01,24,10,11,2.80
2016,01,24,10,12,2.80
2016,01,24,10,13,2.90
2016,01,24,10,14,2.90
2016,01,24,10,15,3.00
2016,01,24,10,16,3.00
2016,01,24,10,17,3.10
2016,01,24,10,18,3.10
2016,01,24,10,19,3.20
2016,01,24,10,20,3.20
2016,01,24,10,21,3.20
2016,01,24,10,22,3.30
2016,01,24,10,23,3.30
2016,01,24,10,24,3.40
2016,01,24,10,25,3.40
2016,01,24,10,26,3.50
2016,01,24,10,27,3.50
2016,01,24,10,28,3.60
2016,01,24,10,29,3.60
2016,01,24,10,30,3.60
2016,01,24,10,31,3.70
2016,01,24,10,32,3.70
2016,01,24,10,33,3.70
2016,01,24,10,34,3.70
2016,01,24,10,35,3.70
2016,01,24,10,36,3.70
2016,01,24,10,37,3.80
2016,01,24,10,38,3.80
2016,01,24,10,39,3.80
2016,01,24,10,40,3.80
2016,01,24,10,41,3.90
2016,01,24,10,42,4.00
2016,01,24,10,43,4.00
2016,01,24,10,44,4.10
2016,01,24,10,45,4.10
2016,01,24,10,46,4.20
2016,01,24,10,47,4.20
2016,01,24,10,48,4.20
2016,01,24,10,49,4.30
2016,01,24,10,50,4.30
2016,01,24,10,51,4.30
2016,01,24,10,52,4.40
2016,01,24,10,53,4.40
2016,01,24,10,54,4.50
2016,01,24,10,55,4.60
2016,01,24,10,56,4.60
2016,01,24,10,57,4.70
2016,01,24,10,58,4.80
2016,01,24,10,59,4.90
2016,01,24,11,00,5.00
2016,01,24,11,01,5.20
2016,01,24,11,02,5.30
2016,01,24,11,03,5.40
2016,01,24,11,04,5.50
2016,01,24,11,05,5.60
2016,01,24,11,06,5.70
2016,01,24,11,07,5.70
2016,01,24,11,08,5.80
2016,01,24,11,09,5.80
2016,01,24,11,10,5.80
2016,01,24,11,11,5.80
2016,01,24,11,12,5.80
2016,01,24,11,13,5.80
2016,01,24,11,14,5.90
2016,01,24,11,15,5.90
2016,01,24,11,16,5.90
2016,01,24,11,17,5.90
2016,01,24,11,18,5.90
2016,01,24,11,19,5.90
2016,01,24,11,20,6.00
2016,01,24,11,21,6.00
2016,01,24,11,22,6.00
2016,01,24,11,23,6.10
2016,01,24,11,24,6.10
2016,01,24,11,25,6.10
2016,01,24,11,26,6.10
2016,01,24,11,27,6.10
2016,01,24,11,28,6.20
2016,01,24,11,29,6.20
2016,01,24,11,30,6.20
2016,01,24,11,31,6.20
2016,01,24,11,32,6.30
2016,01,24,11,33,6.30
2016,01,24,11,34,6.30
2016,01,24,11,35,6.40
2016,01,24,11,36,6.40
2016,01,24,11,37,6.50
2016,01,24,11,38,6.50
2016,01,24,11,39,6.60
2016,01,24,11,40,6.60
2016,01,24,11,41,6.70
2016,01,24,11,42,6.70
2016,01,24,11,43,6.70
2016,01,24,11,44,6.70
2016,01,24,11,45,6.70
2016,01,24,11,46,6.70
2016,01,24,11,47,6.70
2016,01,24,11,48,6.80
2016,01,24,11,49,6.80
2016,01,24,11,50,6.80
2016,01,24,11,51,6.80
2016,01,24,11,52,6.80
2016,01,24,11,53,6.90
2016,01,24,11,54,6.90
2016,01,24,11,55,6.90
2016,01,24,11,56,7.00
2016,01,24,11,57,7.00
2016,01,24,11,58,7.00
2016,01,24,11,59,7.00
2016,01,24,12,00,7.10
2016,01,24,12,01,7.10
2016,01,24,12,02,7.10
2016,01,24,12,03,7.10
2016,01,24,12,04,7.10
2016,01,24,12,05,7.10
2016,01,24,12,06,7.20
2016,01,24,12,07,7.20
2016,01,24,12,08,7.20
2016,01,24,12,09,7.20
2016,01,24,12,10,7.20
2016,01,24,12,11,7.30
2016,01,24,12,12,7.30
2016,01,24,12,13,7.30
2016,01,24,12,14,7.30
2016,01,24,12,15,7.40
2016,01,24,12,16,7.40
2016,01,24,12,17,7.40
2016,01,24,12,18,7.50
2016,01,24,12,19,7.50
2016,01,24,12,20,7.60
2016,01,24,12,21,7.60
2016,01,24,12,22,7.60
2016,01,24,12,23,7.60
2016,01,24,12,24,7.70
2016,01,24,12,25,7.70
2016,01,24,12,26,7.80
2016,01,24,12,27,7.80
2016,01,24,12,28,7.80
2016,01,24,12,29,7.80
2016,01,24,12,30,7.80
2016,01,24,12,31,7.80
2016,01,24,12,32,7.70
2016,01,24,12,33,7.80
2016,01,24,12,34,7.80
2016,01,24,12,35,7.80
2016,01,24,12,36,7.70
2016,01,24,12,37,7.70
2016,01,24,12,38,7.70
2016,01,24,12,39,7.80
2016,01,24,12,40,7.80
2016,01,24,12,41,7.80
2016,01,24,12,42,7.80
2016,01,24,12,43,7.80
2016,01,24,12,44,7.80
2016,01,24,12,45,7.80
2016,01,24,12,46,7.80
2016,01,24,12,47,7.80
2016,01,24,12,48,7.80
2016,01,24,12,49,7.80
2016,01,24,12,50,7.80
2016,01,24,12,51,7.90
2016,01,24,12,52,7.90
2016,01,24,12,53,7.90
2016,01,24,12,54,7.90
2016,01,24,12,55,7.90
2016,01,24,12,56,7.90
2016,01,24,12,57,8.00
2016,01,24,12,58,8.00
2016,01,24,12,59,8.00
2016,01,24,13,00,8.10
2016,01,24,13,01,8.10
2016,01,24,13,02,8.10
2016,01,24,13,03,8.10
2016,01,24,13,04,8.20
2016,01,24,13,05,8.20
2016,01,24,13,06,8.20
2016,01,24,13,07,8.20
2016,01,24,13,08,8.20
2016,01,24,13,09,8.10
2016,01,24,13,10,8.10
2016,01,24,13,11,8.10
2016,01,24,13,12,8.10
2016,01,24,13,13,8.10
2016,01,24,13,14,8.20
2016,01,24,13,15,8.20
2016,01,24,13,16,8.20
2016,01,24,13,17,8.20
2016,01,24,13,18,8.20
2016,01,24,13,19,8.20
2016,01,24,13,20,8.20
2016,01,24,13,21,8.20
2016,01,24,13,22,8.30
2016,01,24,13,23,8.30
2016,01,24,13,24,8.30
2016,01,24,13,25,8.40
2016,01,24,13,26,8.50
2016,01,24,13,27,8.50
2016,01,24,13,28,8.50
2016,01,24,13,29,8.40
2016,01,24,13,30,8.40
2016,01,24,13,31,8.40
2016,01,24,13,32,8.30
2016,01,24,13,33,8.30
2016,01,24,13,34,8.30
2016,01,24,13,35,8.40
2016,01,24,13,36,8.40
2016,01,24,13,37,8.50
2016,01,24,13,38,8.50
2016,01,24,13,39,8.60
2016,01,24,13,40,8.60
2016,01,24,13,41,8.60
2016,01,24,13,42,8.70
2016,01,24,13,43,8.70
2016,01,24,13,44,8.70
2016,01,24,13,45,8.70
2016,01,24,13,46,8.70
2016,01,24,13,47,8.70
2016,01,24,13,48,8.60
2016,01,24,13,49,8.60
2016,01,24,13,50,8.60
2016,01,24,13,51,8.60
2016,01,24,13,52,8.60
2016,01,24,13,53,8.60
2016,01,24,13,54,8.70
2016,01,24,13,55,8.70
2016,01,24,13,56,8.70
2016,01,24,13,57,8.80
2016,01,24,13,58,8.80
2016,01,24,13,59,8.90
2016,01,24,14,00,8.90
2016,01,24,14,01,8.90
2016,01,24,14,02,9.00
2016,01,24,14,03,9.00
2016,01,24,14,04,9.00
2016,01,24,14,05,9.00
2016,01,24,14,06,9.10
2016,01,24,14,07,9.00
2016,01,24,14,08,9.00
2016,01,24,14,09,9.00
2016,01,24,14,10,8.90
2016,01,24,14,11,8.90
2016,01,24,14,12,8.90
2016,01,24,14,13,8.80
2016,01,24,14,14,8.80
2016,01,24,14,15,8.80
2016,01,24,14,16,8.80
2016,01,24,14,17,8.80
2016,01,24,14,18,8.80
2016,01,24,14,19,8.80
2016,01,24,14,20,8.80
2016,01,24,14,21,8.80
2016,01,24,14,22,8.80
2016,01,24,14,23,8.80
2016,01,24,14,24,8.80
2016,01,24,14,25,8.80
2016,01,24,14,26,8.80
2016,01,24,14,27,8.80
2016,01,24,14,28,8.80
2016,01,24,14,29,8.70
2016,01,24,14,30,8.80
2016,01,24,14,31,8.80
2016,01,24,14,32,8.80
2016,01,24,14,33,8.80
2016,01,24,14,34,8.80
2016,01,24,14,35,8.80
2016,01,24,14,36,8.80
2016,01,24,14,37,8.80
2016,01,24,14,38,8.80
2016,01,24,14,39,8.80
2016,01,24,14,40,8.80
2016,01,24,14,41,8.80
2016,01,24,14,42,8.80
2016,01,24,14,43,8.80
2016,01,24,14,44,8.80
2016,01,24,14,45,8.80
2016,01,24,14,46,8.90
2016,01,24,14,47,8.90
2016,01,24,14,48,8.90
2016,01,24,14,49,8.90
2016,01,24,14,50,8.90
2016,01,24,14,51,8.90
2016,01,24,14,52,8.90
2016,01,24,14,53,8.80
2016,01,24,14,54,8.80
2016,01,24,14,55,8.80
2016,01,24,14,56,8.80
2016,01,24,14,57,8.80
2016,01,24,14,58,8.80
2016,01,24,14,59,8.70
2016,01,24,15,00,8.70
2016,01,24,15,01,8.80
2016,01,24,15,02,8.80
2016,01,24,15,03,8.80
2016,01,24,15,04,8.80
2016,01,24,15,05,8.80
2016,01,24,15,06,8.80
2016,01,24,15,07,8.80
2016,01,24,15,08,8.90
2016,01,24,15,09,8.90
2016,01,24,15,10,8.90
2016,01,24,15,11,8.90
2016,01,24,15,12,9.00
2016,01,24,15,13,9.00
2016,01,24,15,14,9.00
2016,01,24,15,15,9.00
2016,01,24,15,16,9.10
2016,01,24,15,17,9.10
2016,01,24,15,18,9.00
2016,01,24,15,19,9.00
2016,01,24,15,20,8.90
2016,01,24,15,21,8.90
2016,01,24,15,22,8.90
2016,01,24,15,23,8.90
2016,01,24,15,24,8.80
2016,01,24,15,25,8.80
2016,01,24,15,26,8.80
2016,01,24,15,27,8.80
2016,01,24,15,28,8.80
2016,01,24,15,29,8.80
2016,01,24,15,30,8.70
2016,01,24,15,31,8.70
2016,01,24,15,32,8.70
2016,01,24,15,33,8.70
2016,01,24,15,34,8.70
2016,01,24,15,35,8.70
2016,01,24,15,36,8.70
2016,01,24,15,37,8.70
2016,01,24,15,38,8.60
2016,01,24,15,39,8.60
2016,01,24,15,40,8.60
2016,01,24,15,41,8.60
2016,01,24,15,42,8.60
2016,01,24,15,43,8.60
2016,01,24,15,44,8.60
2016,01,24,15,45,8.60
2016,01,24,15,46,8.60
2016,01,24,15,47,8.50
2016,01,24,15,48,8.50
2016,01,24,15,49,8.50
2016,01,24,15,50,8.50
2016,01,24,15,51,8.50
2016,01,24,15,52,8.50
2016,01,24,15,53,8.50
2016,01,24,15,54,8.40
2016,01,24,15,55,8.40
2016,01,24,15,56,8.40
2016,01,24,15,57,8.40
2016,01,24,15,58,8.40
2016,01,24,15,59,8.40
2016,01,24,16,00,8.40
2016,01,24,16,01,8.40
2016,01,24,16,02,8.40
2016,01,24,16,03,8.40
2016,01,24,16,04,8.50
2016,01,24,16,05,8.40
2016,01,24,16,06,8.40
2016,01,24,16,07,8.40
2016,01,24,16,08,8.40
2016,01,24,16,09,8.40
2016,01,24,16,10,8.40
2016,01,24,16,11,8.40
2016,01,24,16,12,8.40
2016,01,24,16,13,8.40
2016,01,24,16,14,8.40
2016,01,24,16,15,8.40
2016,01,24,16,16,8.40
2016,01,24,16,17,8.40
2016,01,24,16,18,8.40
2016,01,24,16,19,8.40
2016,01,24,16,20,8.40
2016,01,24,16,21,8.40
2016,01,24,16,22,8.30
2016,01,24,16,23,8.40
2016,01,24,16,24,8.30
2016,01,24,16,25,8.30
2016,01,24,16,26,8.30
2016,01,24,16,27,8.30
2016,01,24,16,28,8.40
2016,01,24,16,29,8.40
2016,01,24,16,30,8.40
2016,01,24,16,31,8.40
2016,01,24,16,32,8.30
2016,01,24,16,33,8.30
2016,01,24,16,34,8.30
2016,01,24,16,35,8.30
2016,01,24,16,36,8.30
2016,01,24,16,37,8.30
2016,01,24,16,38,8.30
2016,01,24,16,39,8.30
2016,01,24,16,40,8.30
2016,01,24,16,41,8.30
2016,01,24,16,42,8.30
2016,01,24,16,43,8.30
2016,01,24,16,44,8.20
2016,01,24,16,45,8.20
2016,01,24,16,46,8.20
2016,01,24,16,47,8.10
2016,01,24,16,48,8.10
2016,01,24,16,49,8.10
2016,01,24,16,50,8.10
2016,01,24,16,51,8.00
2016,01,24,16,52,8.00
2016,01,24,16,53,8.00
2016,01,24,16,54,8.00
2016,01,24,16,55,8.00
2016,01,24,16,56,7.90
2016,01,24,16,57,7.90
2016,01,24,16,58,7.90
2016,01,24,16,59,7.90
2016,01,24,17,00,7.90
2016,01,24,17,01,7.90
2016,01,24,17,02,7.90
2016,01,24,17,03,7.90
2016,01,24,17,04,7.80
2016,01,24,17,05,7.80
2016,01,24,17,06,7.80
2016,01,24,17,07,7.80
2016,01,24,17,08,7.80
2016,01,24,17,09,7.80
2016,01,24,17,10,7.70
2016,01,24,17,11,7.70
2016,01,24,17,12,7.70
2016,01,24,17,13,7.60
2016,01,24,17,14,7.60
2016,01,24,17,15,7.50
2016,01,24,17,16,7.50
2016,01,24,17,17,7.40
2016,01,24,17,18,7.40
2016,01,24,17,19,7.30
2016,01,24,17,20,7.30
2016,01,24,17,21,7.20
2016,01,24,17,22,7.20
2016,01,24,17,23,7.20
2016,01,24,17,24,7.10
2016,01,24,17,25,7.10
2016,01,24,17,26,7.00
2016,01,24,17,27,7.00
2016,01,24,17,28,6.90
2016,01,24,17,29,6.90
2016,01,24,17,30,6.90
2016,01,24,17,31,6.80
2016,01,24,17,32,6.80
2016,01,24,17,33,6.80
2016,01,24,17,34,6.80
2016,01,24,17,35,6.80
2016,01,24,17,36,6.80
2016,01,24,17,37,6.80
2016,01,24,17,38,6.80
2016,01,24,17,39,6.80
2016,01,24,17,40,6.80
2016,01,24,17,41,6.80
2016,01,24,17,42,6.70
2016,01,24,17,43,6.70
2016,01,24,17,44,6.70
2016,01,24,17,45,6.70
2016,01,24,17,46,6.70
2016,01,24,17,47,6.70
2016,01,24,17,48,6.70
2016,01,24,17,49,6.70
2016,01,24,17,50,6.70
2016,01,24,17,51,6.70
2016,01,24,17,52,6.70
2016,01,24,17,53,6.70
2016,01,24,17,54,6.70
2016,01,24,17,55,6.70
2016,01,24,17,56,6.70
2016,01,24,17,57,6.70
2016,01,24,17,58,6.60
2016,01,24,17,59,6.60
2016,01,24,18,00,6.60
2016,01,24,18,01,6.60
2016,01,24,18,02,6.60
2016,01,24,18,03,6.50
2016,01,24,18,04,6.50
2016,01,24,18,05,6.50
2016,01,24,18,06,6.50